Regional Weather Roundup
Issued by NWS Cleveland, OH

Home | Current Version | Previous Version | Text Only | Print | Product List | Glossary Off
Versions: 1 2 3 4 5 6 7 8 9 10 11 12 13 14 15 16 17 18 19 20 21 22 23 24 25 26 27 28 29 30 31 32 33 34 35 36 37 38 39 40 41 42 43 44 45 46 47 48 49 50

000
ASUS41 KCLE 130402
RWRCLE
OHIO REGIONAL WEATHER ROUNDUP
NATIONAL WEATHER SERVICE CLEVELAND, OH
1200 AM EDT SUN JUL 13 2014

NOTE: "FAIR" INDICATES FEW OR NO CLOUDS BELOW 12,000 FEET WITH NO
SIGNIFICANT WEATHER AND/OR OBSTRUCTIONS TO VISIBILITY.

OHZ001>008-015>018-024>027-034-035-043-044-130500-
   NORTHWEST OHIO

CITY           SKY/WX    TMP DP  RH WIND       PRES   REMARKS
DEFIANCE       PTCLDY    74  67  78 S7        29.96F
FINDLAY        CLOUDY    75  69  81 S10       29.98F
TOLEDO EXPRESS MOCLDY    74  66  76 S5        29.95F
TOLEDO EXEC    MOCLDY    74  67  78 S7        29.96F
LIMA           PTCLDY    77  69  76 S9        30.00F
$$

OHZ009>014-019>023-028>033-038-089-130500-
   NORTHEAST OHIO

CITY           SKY/WX    TMP DP  RH WIND       PRES   REMARKS
CLE-HOPKINS    MOCLDY    77  63  61 S10       30.01F
CLE-LAKEFRONT  PTCLDY    78  63  59 S7        29.96F
CUY CO. ARPT   NOT AVBL
LORAIN-ELYRIA  CLEAR     77  64  64 SW8       30.00F
ASHTABULA      PTCLDY    75  61  61 S8        30.01F
AKRON-CANTON   MOCLDY    73  62  68 S6        30.04F
WOOSTER        PTCLDY    73  64  73 SW7       30.04F
MANSFIELD      CLEAR     73  65  75 S8        30.04F
YOUNGSTOWN     PTCLDY    73  64  73 S6        30.04F
$$

OHZ042-051>053-060>062-070>072-077>081-130500-
  SOUTHWEST OHIO

CITY           SKY/WX    TMP DP  RH WIND       PRES   REMARKS
CINC-COVINGTON CLOUDY    76  68  76 S7        30.06S
CINC-LUNKEN    MOCLDY    73  69  87 SW3       30.05S
HAMILTON       CLOUDY    77  70  79 CALM      30.05S
DAYTON         MOCLDY    78  67  68 S10       30.04F
WRIGHT-PAT AFB NOT AVBL
DAYTON GENERAL CLOUDY    75  67  76 S7        30.04F
WILMINGTON     CLOUDY    74  66  76 S7        30.05F
$$

OHZ036-037-039>041-045>050-054>059-063>069-073>076-082>088-130500-
  CENTRAL AND SOUTHEAST OHIO

CITY           SKY/WX    TMP DP  RH WIND       PRES   REMARKS
COLUMBUS       MOCLDY    79  65  62 S5        30.04F
OSU AIRPORT    PTCLDY    77  66  68 S7        30.04F
BOLTON FIELD   PTCLDY    73  68  84 S6        30.05F
RICKENBACK AFB MOCLDY    74  64  68 S5        30.04F
NEWARK         MOCLDY    70  66  87 CALM      30.05F
MARION         MOCLDY    73  66  78 S7        30.03F HAZE
LANCASTER      MOCLDY    71  67  87 CALM      30.06F
ZANESVILLE     MOCLDY    71  66  84 CALM      30.06F
NEW PHILLY     CLOUDY    71  66  84 SE3       30.05F
$$



USA.gov is the U.S. government's official web portal to all federal, state and local government web resources and services.